Flag for U.S.A. Weather past 2 weeks in Scottsdale, Arizona, U.S.A.

Now
52 °F

Mostly cloudy.


Feels Like: 52 °F
Forecast: 44 / 57 °F
Wind: No wind

Location: Scottsdale Airport

Current Time: Dec 17, 2014 at 9:26:03 PM

Latest Report: Dec 17, 2014 at 8:53 PM


Visibility: 10 mi

Pressure: 30.10 "Hg

Humidity: 77%

Dew point: 45 °F

Location of ScottsdaleLocation

Historic Weather in Scottsdale — Graph

°F

Scottsdale temperature yesterday

Maximum temperature yesterday: 60 °F (at 12:53 PM)
Minimum temperature yesterday: 48 °F (at 3:53 AM)
Average temperature yesterday: 54 °F

Past Weeks' High & Low Weather Summary

 TemperatureHumidityPressure
High76 °F (Dec 9, 11:53 AM)100% (Dec 13, 5:02 AM)30.19 "Hg (Dec 13, 5:02 AM)
Low42 °F (Dec 15, 7:53 AM)28% (Dec 8, 12:53 PM)29.88 "Hg (Dec 10, 3:53 PM)
Average60 °F65%30.02 "Hg
* Reported Dec 2 7:53 PM — Dec 17 7:53 PM, Scottsdale, Weather by CustomWeather, © 2014

Note: Actual official high and low records may vary slightly from our data, if they occured in-between our weather recording intervals... More about our weather records

Advertising

Scottsdale weather history for previous 24 hours

 ConditionsComfort  
Time TempWeatherWind HumidityBarometerVisibility
7:53 PM
Dec 17
51 °FPassing clouds.No wind80%30.09 "Hg10 mi
6:53 PM53 °FPassing clouds.3 mph72%30.08 "Hg10 mi
5:53 PM53 °FMostly cloudy.5 mph72%30.06 "Hg10 mi
4:53 PM56 °FPartly sunny.No wind70%30.05 "Hg10 mi
3:53 PM56 °FMostly cloudy.No wind72%30.04 "Hg10 mi
2:53 PM55 °FOvercast.No wind72%30.03 "Hg10 mi
1:53 PM55 °FLight rain. Mostly cloudy.5 mph72%30.04 "Hg8 mi
12:53 PM55 °FCloudy.No wind72%30.04 "Hg10 mi
12:00 PM54 °FPartly sunny.3 mph77%30.10 "Hg10 mi
11:00 AM52 °FOvercast.5 mph82%30.12 "Hg10 mi
9:53 AM52 °FLight rain. Overcast.5 mph80%30.07 "Hg10 mi
8:53 AM50 °FOvercast.5 mph89%30.05 "Hg10 mi
7:53 AM49 °FOvercast.No wind93%30.03 "Hg10 mi
6:53 AM49 °FMostly cloudy.3 mph90%30.01 "Hg10 mi
5:53 AM49 °FLight rain. Overcast.No wind90%29.99 "Hg10 mi
4:53 AM50 °FLight rain. Mostly cloudy.3 mph86%29.99 "Hg9 mi
3:53 AM50 °FLight rain. Mostly cloudy.No wind86%29.99 "Hg10 mi
2:53 AM51 °FLight rain. Overcast.3 mph86%29.98 "Hg10 mi
1:53 AM54 °FLight rain. Overcast.3 mph67%29.98 "Hg10 mi
12:53 AM54 °FOvercast.3 mph64%29.98 "Hg10 mi
11:53 PM
Dec 16
54 °FPassing clouds.No wind67%29.99 "Hg10 mi
10:53 PM55 °FClear.No wind67%30.00 "Hg10 mi
9:53 PM56 °FClear.No wind65%30.00 "Hg10 mi
Weather by CustomWeather, © 2014

See weather overviewHow to use our weather pages